Location: Pl�tzky
(52.0521°N, 11.8020°E)
Time: 18:39:27
(UTC+00:00)

USA 215 - Pass Details

Date: 22 November 2019
Orbit: 1101 x 1107 km, 123.0° (Epoch: 11 December)

Event Time Altitude Azimuth Distance (km) Brightness Sun altitude
Exits shadow 18:07:25 57° 76° (ENE) 1,282 3.2 -26.2°
Maximum altitude 18:08:43 71° 18° (NNE) 1,160 3.2 -26.4°
Drops below altitude 10° 18:15:13 10° 296° (WNW) 2,965 6.3 -27.4°
Sets 18:17:43 0° 294° (WNW) 3,924 7.2 -27.8°
